Greenville, ME

8:38 PM EDT on May 28, 2017 (GMT -0400)
Greenville

Weather History for KGNR - December, 2013

Change the Weather History Date:

Wednesday, December 25, 2013

  Actual Average (KMLT) Record (KMLT)
Temperature  
Mean Temperature 4 °F -  
Max Temperature 9 °F 26 °F 53 °F (2015)
Min Temperature 0 °F 6 °F -24 °F (1914)
Degree Days  
Heating Degree Days 60    
Moisture  
Dew Point -2 °F    
Average Humidity 79    
Maximum Humidity 84    
Minimum Humidity 73    
Precipitation  
Precipitation 0.00 in - - ()
Sea Level Pressure  
Sea Level Pressure 30.37 in    
Wind  
Wind Speed 9 mph (NNW)    
Max Wind Speed 17 mph    
Max Gust Speed 28 mph    
Averages and records for this station are not official NWS values.
T = Trace of Precipitation, MM = Missing Value Source: NWS Daily Summary

Daily Weather History Graph

Daily Weather History Graph

Search for Another Location

Airport or City:

Trip Planner

Search our weather history database for the weather conditions in past years. The results will help you decide how hot, cold, wet, or windy it might be!

Date:

Astronomy

Dec. 25, 2013 Rise Set
Actual Time 7:17 AM EST 4:00 PM EST
Civil Twilight 6:42 AM EST 4:34 PM EST
Nautical Twilight 6:05 AM EST 5:11 PM EST
Astronomical Twilight 5:29 AM EST 5:48 PM EST
Moon No Moon Rise 11:17 AM EST (12/25)
Length of Visible Light 9h 51m
Length of Day
8h 43m
Waning Gibbous, 49% of the Moon is Illuminated
Dec 25
Waning Gibbous
Jan 1
New
Jan 7
First Quarter
Jan 15
Full
Jan 24
Last Quarter

Hourly Weather History & Observations

Time (EST) Temp. Windchill Dew Point Humidity Pressure Visibility Wind Dir Wind Speed Gust Speed Precip Events Conditions
12:56 AM 3.0 °F -10.5 °F -2.0 °F 80% 30.12 in - NW 8.1 mph 19.6 mph N/A   Unknown
1:56 AM 3.0 °F -14.1 °F -2.0 °F 80% 30.13 in - NW 12.7 mph 23.0 mph N/A   Unknown
2:56 AM 1.9 °F -11.8 °F -2.0 °F 83% 30.16 in - WNW 8.1 mph 17.3 mph N/A   Unknown
3:56 AM 1.9 °F -14.7 °F -2.9 °F 80% 30.18 in - NW 11.5 mph 21.9 mph N/A   Unknown
4:56 AM 1.9 °F -15.5 °F -2.9 °F 80% 30.23 in - NNW 12.7 mph 21.9 mph N/A   Unknown
5:56 AM -0.0 °F -18.7 °F -5.1 °F 79% 30.27 in - NNW 13.8 mph 27.6 mph N/A   Unknown
6:56 AM -0.9 °F -18.3 °F -6.0 °F 79% 30.31 in - North 11.5 mph 19.6 mph N/A   Unknown
7:56 AM -0.9 °F -21.9 °F -6.0 °F 79% 30.34 in - NNW 17.3 mph 26.5 mph N/A   Unknown
8:56 AM -0.0 °F -20.7 °F -6.0 °F 76% 30.38 in - NNW 17.3 mph 25.3 mph N/A   Unknown
9:56 AM 1.9 °F -14.7 °F -4.0 °F 76% 30.41 in - NW 11.5 mph 19.6 mph N/A   Unknown
10:56 AM 3.9 °F -12.2 °F -2.0 °F 76% 30.42 in - NW 11.5 mph 16.1 mph N/A   Unknown
11:56 AM 5.0 °F -12.3 °F -0.9 °F 76% 30.40 in - NNW 13.8 mph 18.4 mph N/A   Unknown
12:56 PM 8.1 °F -3.2 °F 1.0 °F 73% 30.41 in - Variable 6.9 mph - N/A   Unknown
1:56 PM 9.0 °F -3.2 °F 1.9 °F 73% 30.42 in - NW 8.1 mph - N/A   Unknown
2:56 PM 8.1 °F -5.3 °F 1.9 °F 76% 30.43 in - NW 9.2 mph - N/A   Unknown
3:56 PM 7.0 °F -4.5 °F 1.9 °F 80% 30.44 in - NW 6.9 mph - N/A   Unknown
4:56 PM 3.9 °F -3.4 °F -0.0 °F 84% 30.47 in - NW 3.5 mph - N/A   Unknown
5:56 PM 3.9 °F - -0.9 °F 80% 30.48 in - Calm Calm - N/A   Unknown
6:56 PM 3.0 °F -4.4 °F -2.0 °F 80% 30.51 in - NNE 3.5 mph - N/A   Unknown
7:56 PM 1.0 °F -6.7 °F -2.9 °F 83% 30.51 in - NNE 3.5 mph - N/A   Unknown
8:56 PM 1.9 °F -5.6 °F -2.9 °F 80% 30.48 in - ENE 3.5 mph - N/A   Unknown
9:56 PM -0.0 °F - -4.0 °F 83% 30.48 in - Calm Calm - N/A   Unknown
10:56 PM 3.9 °F - -2.0 °F 76% 30.48 in - Calm Calm - N/A   Unknown
11:56 PM 6.1 °F -0.9 °F 1.0 °F 80% 30.46 in - SSE 3.5 mph - N/A   Unknown